Location: Newark
(33.6439°N, 114.9881°W)
Time: 15:19:03
(UTC+00:00)

Envisat - Pass Details

Date: 30 June 2019
Orbit: 764 x 766 km, 98.1° (Epoch: 21 July)

Event Time Altitude Azimuth Distance (km) Brightness Sun altitude
Rises 03:21:49 0° 210° (SSW) 3,218 6.2 -5.7°
Reaches altitude 10° 03:25:09 10° 233° (SW) 2,297 5.8 -6.3°
Maximum altitude 03:27:57 15° 267° (W) 1,987 6.0 -6.8°
Drops below altitude 10° 03:30:45 10° 301° (WNW) 2,304 7.3 -7.3°
Sets 03:34:07 0° 325° (NW) 3,235 7.8 -7.9°
